Content
SEND FEEDBACK

Daily
Averages
Monthly
Summary
Iran

MASHHAD, IRAN


Home > Middle East > Iran
Elevation: 3214 feet     Latitude: 36 16N     Longitude: 059 38E

WEATHER
 
SELECT A DAY
Number of Records: 195,310;   Date Range: 2/9/98 - 4/15/14
 
SHARE

PRINT THIS DATA

[ ← Previous Day ]
WEATHER ALMANAC - FEBRUARY 4, 2013
[ Next Day → ]
[ °C ]   °F
Weather ElementAverageHighLow
Temperature38.7 °F50 °F (3:00 pm)32 °F (5:20 am)
Dewpoint31.9 °F37.4 °F (4:20 pm)28 °F (3:30 am)
Humidity77.2 %93 % (7:00 pm)35 % (3:30 pm)
Barometer30.24 in30.38 in (9:30 pm)30.18 in (12:20 am)
Wind Speed8.9 mph18.4 mph (4:20 pm)
Weather ElementAverage
Visibility6.4 mi
Wind DirectionSSE (163.8 °)

Weather ElementTotal
Precipitation---
Heating Degree Days24 (Base 65)
Averaged from 72 records on February 4, 2013
WEATHER CONDITIONS BREAKOUT
WIND DIRECTION BREAKOUT
WEATHER BY HOUR - FEBRUARY 4, 2013
[ °C ]   °F
Local TimeTemperatureDewpointHumidityBarometerVisibilityWind DirectionWind SpeedGust SpeedPrecipitationEventsConditions
12:20 AM39.2 °F30.2 °F70 %30.18 in6.2 miNW (320°)11.5 mphMostly Cloudy
12:30 AM39.2 °F30.2 °F70 %30.18 in6.2 miNW (320°)11.5 mphMostly Cloudy
1:00 AM39.2 °F30.2 °F70 %30.18 in6.2 miWNW (290°)4.6 mphMostly Cloudy
1:20 AM37.4 °F28.4 °F70 %30.18 inNNW (340°)6.9 mphClear
1:30 AM37.4 °F28.4 °F70 %30.18 inNNW (340°)6.9 mphClear
2:00 AM37.4 °F30.2 °F75 %30.18 inNorth (360°)9.2 mphClear
2:20 AM35.6 °F30.2 °F81 %30.18 inNorth (360°)6.9 mphClear
2:30 AM35.6 °F30.2 °F81 %30.18 inNorth (360°)6.9 mphClear
3:00 AM37.4 °F28.4 °F70 %30.18 inNW (310°)6.9 mphClear
3:20 AM35.6 °F28.4 °F75 %30.18 inCalmClear
3:30 AM36.0 °F28.0 °F65 %30.23 in12.0 miCalmScattered Clouds
3:30 AM35.6 °F28.4 °F75 %30.18 inCalmClear
4:00 AM35.6 °F30.2 °F81 %30.18 inSSW (200°)4.6 mphClear
4:20 AM37.4 °F30.2 °F75 %30.18 inSouth (180°)4.6 mphClear
4:30 AM37.4 °F30.2 °F75 %30.18 inSouth (180°)4.6 mphClear
5:00 AM33.8 °F30.2 °F87 %30.18 inNE (50°)6.9 mphClear
5:20 AM32.0 °F28.4 °F87 %30.18 inNNE (20°)6.9 mphClear
5:30 AM32.0 °F28.4 °F87 %30.18 inNNE (20°)6.9 mphClear
6:00 AM33.8 °F28.4 °F81 %30.18 inSouth (190°)4.6 mphClear
6:20 AM33.8 °F28.4 °F81 %30.21 in6.2 miWSW (240°)4.6 mphPartly Cloudy
6:30 AM33.8 °F28.4 °F81 %30.21 in6.2 miWSW (240°)4.6 mphPartly Cloudy
7:00 AM35.6 °F30.2 °F81 %30.21 in6.2 miSW (220°)4.6 mphScattered Clouds
7:20 AM35.6 °F30.2 °F81 %30.21 in6.2 miSW (220°)4.6 mphMostly Cloudy
7:30 AM35.6 °F30.2 °F81 %30.21 in6.2 miSW (220°)4.6 mphMostly Cloudy
8:00 AM37.4 °F30.2 °F75 %30.24 in6.2 miSW (230°)6.9 mphMostly Cloudy
8:20 AM39.2 °F30.2 °F70 %30.24 in6.2 miSouth (190°)6.9 mphMostly Cloudy
8:30 AM39.2 °F30.2 °F70 %30.24 in6.2 miSouth (190°)6.9 mphMostly Cloudy
8:55 AM39.2 °F33.8 °F81 %30.24 in6.2 miSouth (190°)6.9 mphMostly Cloudy
9:20 AM41.0 °F32.0 °F70 %30.27 in6.2 miESE (120°)6.9 mphMostly Cloudy
9:30 AM40.0 °F32.0 °F63 %30.32 in9.0 miESE (120°)6.7 mphScattered Clouds
9:30 AM41.0 °F32.0 °F70 %30.27 in6.2 miESE (120°)6.9 mphMostly Cloudy
10:00 AM42.8 °F32.0 °F66 %30.27 in6.2 miEast (80°)6.9 mphMostly Cloudy
10:20 AM42.8 °F32.0 °F66 %30.27 in6.2 miEast (100°)9.2 mphMostly Cloudy
10:30 AM42.8 °F32.0 °F66 %30.27 in6.2 miEast (100°)9.2 mphMostly Cloudy
11:00 AM42.8 °F32.0 °F66 %30.24 in6.2 miSouth (170°)4.6 mphScattered Clouds
11:20 AM42.8 °F32.0 °F66 %30.24 in6.2 miSSE (150°)6.9 mphScattered Clouds
11:30 AM42.8 °F32.0 °F66 %30.24 in6.2 miSSE (150°)6.9 mphScattered Clouds
12:00 PM42.8 °F30.2 °F61 %30.21 in6.2 miNNE (30°)6.9 mphScattered Clouds
12:20 PM42.8 °F30.2 °F61 %30.21 in6.2 miSouth (170°)6.9 mphScattered Clouds
12:30 PM42.8 °F30.2 °F61 %30.21 in6.2 miSouth (170°)6.9 mphScattered Clouds
2:20 PM44.6 °F30.2 °F57 %30.21 in6.2 miNorth (350°)9.2 mphScattered Clouds
2:30 PM44.6 °F30.2 °F57 %30.21 in6.2 miNorth (350°)9.2 mphScattered Clouds
3:00 PM50.0 °F28.4 °F43 %30.21 in6.2 miSE (140°)9.2 mphPartly Cloudy
3:20 PM48.2 °F28.4 °F46 %30.21 in6.2 miSouth (180°)4.6 mphScattered Clouds
3:30 PM48.2 °F28.4 °F46 %30.21 in6.2 miSouth (180°)4.6 mphScattered Clouds
3:30 PM48.0 °F29.0 °F35 %30.27 in9.0 miSouth (180°)4.5 mphClear
4:00 PM44.6 °F35.6 °F71 %30.21 in6.2 miEast (90°)13.8 mphRainRain Showers
4:20 PM41.0 °F37.4 °F87 %30.21 in6.2 miESE (120°)18.4 mphRainRain Showers
4:30 PM41.0 °F37.4 °F87 %30.21 in6.2 miESE (120°)18.4 mphRainRain Showers
5:00 PM39.2 °F35.6 °F87 %30.24 in6.2 miESE (120°)16.1 mphRainLight Rain Showers
5:20 PM39.2 °F35.6 °F87 %30.24 in6.2 miSE (130°)16.1 mphMostly Cloudy
5:30 PM39.2 °F35.6 °F87 %30.24 in6.2 miSE (130°)16.1 mphMostly Cloudy
6:00 PM39.2 °F35.6 °F87 %30.27 in6.2 miESE (110°)18.4 mphMostly Cloudy
6:20 PM39.2 °F35.6 °F87 %30.27 in6.2 miESE (110°)16.1 mphRainLight Rain
6:30 PM39.2 °F35.6 °F87 %30.27 in6.2 miESE (110°)16.1 mphRainLight Rain
7:00 PM37.4 °F35.6 °F93 %30.27 in6.2 miSE (140°)11.5 mphRainLight Rain
7:20 PM37.4 °F35.6 °F93 %30.30 in6.2 miSE (130°)11.5 mphRainLight Rain
7:30 PM37.4 °F35.6 °F93 %30.30 in6.2 miSE (130°)11.5 mphRainLight Rain
7:55 PM37.4 °F35.6 °F93 %30.30 in6.2 miESE (120°)13.8 mphOvercast
8:20 PM35.6 °F33.8 °F93 %30.30 in6.2 miESE (110°)13.8 mphOvercast
8:30 PM35.6 °F33.8 °F93 %30.30 in6.2 miESE (110°)13.8 mphOvercast
8:55 PM37.4 °F35.6 °F93 %30.30 in6.2 miESE (110°)13.8 mphOvercast
9:20 PM37.4 °F35.6 °F93 %30.30 in6.2 miESE (110°)11.5 mphOvercast
9:30 PM37.4 °F35.6 °F93 %30.30 in6.2 miESE (110°)11.5 mphOvercast
9:30 PM36.0 °F35.0 °F93 %30.38 in6.0 miESE (110°)11.2 mphPartly Cloudy
9:55 PM37.4 °F35.6 °F93 %30.30 in6.2 miEast (100°)9.2 mphOvercast
10:20 PM35.6 °F33.8 °F93 %30.30 in6.2 miESE (110°)13.8 mphOvercast
10:30 PM35.6 °F33.8 °F93 %30.30 in6.2 miESE (110°)13.8 mphOvercast
11:00 PM35.6 °F33.8 °F93 %30.30 in6.2 miESE (110°)13.8 mphOvercast
11:20 PM35.6 °F33.8 °F93 %30.30 in6.2 miESE (120°)9.2 mphOvercast
11:30 PM35.6 °F33.8 °F93 %30.30 in6.2 miESE (120°)9.2 mphOvercast
11:55 PM35.6 °F33.8 °F93 %30.30 in6.2 miEast (100°)9.2 mphOvercast
Hourly data recorded from OIMM, located 2.77 miles away from Mashhad, Iran







STORIES FROM OUR PARTNERS